RH
31 73 100 100 100 100 100 100 99 82 77 59 32 26 26 24 26 29 30 32 35 36 32 26 25 24 23 19 16 19 20 22 22 22 21 18 18 14 12 12 9 9 9 9 27 46 100 100 100
18 25 68 40 52 71 66 54 27 21 20 19 21 23 25 28 30 33 36 38 41 38 36 34 30 25 23 21 19 17 16 20 20 21 22 22 20 20 17 12 10 10 9 9 10 32 54 100 100
16 16 17 16 16 17 18 19 19 19 21 23 24 26 29 32 35 40 42 39 35 33 32 28 26 25 24 22 20 18 15 16 19 20 19 22 20 20 19 16 12 12 10 10 9 10 27 65 96
17 17 18 19 20 20 21 23 24 26 28 29 30 31 34 34 39 36 38 34 23 26 28 26 26 27 23 20 20 18 16 14 17 18 19 21 18 18 18 19 17 11 10 10 10 10 10 21 86
18 20 20 22 23 23 23 24 25 28 29 30 33 34 32 35 29 26 25 23 24 24 24 25 27 25 20 20 20 20 18 14 14 16 17 17 18 19 20 20 17 12 10 10 11 10 9 12 44
22 22 23 23 25 25 25 25 25 24 24 23 24 29 23 22 21 20 19 19 21 22 23 24 25 24 22 22 23 22 20 16 15 16 16 17 18 19 20 20 15 13 12 10 8 11 10 8 13
22 22 23 24 27 27 25 24 24 24 23 22 23 24 20 20 20 21 22 22 23 24 24 27 28 25 27 27 24 22 23 23 21 15 16 17 17 17 18 19 16 16 14 10 8 9 10 9 8
22 22 24 24 27 28 28 26 27 26 26 27 26 26 26 26 25 24 25 26 27 27 26 28 26 27 31 32 29 25 27 27 29 17 16 15 16 15 16 16 16 16 14 13 10 8 8 10 9
24 24 26 25 26 28 26 28 27 26 27 30 30 29 30 30 30 29 29 30 31 31 30 28 29 29 32 33 30 28 30 28 24 20 16 15 15 15 16 16 16 17 16 15 12 9 8 8 9
27 27 25 27 28 31 31 32 28 27 25 25 27 27 30 30 31 32 34 34 35 35 34 32 30 32 32 33 32 33 31 30 22 18 17 14 15 17 18 17 18 18 18 18 16 13 10 8 8
29 30 30 30 32 34 34 35 36 31 28 28 29 28 28 28 31 34 35 35 36 37 37 36 34 34 37 38 37 37 30 30 21 20 18 14 15 16 18 18 20 20 20 21 21 16 11 9 8
30 31 32 32 33 36 37 38 39 34 36 29 28 31 28 30 31 33 35 38 40 40 40 40 40 40 43 45 43 40 35 26 26 23 17 15 14 14 16 17 18 18 20 21 22 20 19 14 11
34 33 32 34 36 37 37 38 38 32 40 36 29 30 29 32 34 36 37 39 41 41 41 42 43 44 47 50 49 42 40 31 28 24 21 15 14 15 14 15 16 20 21 20 24 25 22 17 13
35 36 38 37 37 36 38 39 37 34 30 40 30 30 31 33 34 36 38 42 43 44 44 44 45 46 48 51 49 49 43 33 33 29 27 20 17 16 15 15 15 17 19 20 23 23 26 21 18
37 37 38 40 41 40 39 38 42 32 36 33 30 28 30 31 30 28 33 37 45 47 46 45 47 49 47 46 48 46 44 43 39 35 31 27 24 21 16 18 18 16 16 16 18 21 24 24 21
42 40 39 37 38 38 39 42 38 30 33 32 29 26 22 16 15 16 18 26 38 42 42 46 50 48 45 44 45 48 48 48 50 36 35 31 26 25 23 24 26 18 17 17 16 18 22 22 21
38 43 45 47 42 43 37 39 34 34 32 27 26 22 16 16 16 16 17 19 23 27 34 43 48 46 44 46 50 49 49 54 56 52 42 33 32 32 30 30 29 27 24 19 17 16 18 20 21
33 37 35 44 44 40 36 44 34 30 28 24 20 17 15 15 15 16 16 17 19 24 34 43 47 46 46 49 49 49 51 52 61 64 48 39 36 36 36 36 39 36 32 29 30 26 15 17 18
30 33 42 38 38 40 36 34 29 26 22 18 15 15 15 16 16 16 16 18 20 23 30 35 42 48 49 50 49 49 49 49 62 60 56 46 45 41 42 43 43 44 42 32 28 26 21 16 18
38 46 44 43 39 36 31 27 24 20 15 16 16 14 16 15 16 16 17 17 19 24 29 35 46 54 51 50 48 43 46 53 54 56 49 50 50 50 51 54 51 44 39 33 32 30 22 20 18
46 49 45 37 32 27 22 18 16 14 14 15 15 15 15 17 16 18 19 20 21 26 30 40 41 46 47 47 47 48 48 47 48 46 46 48 47 53 53 45 40 34 27 25 24 26 26 26 20
40 32 24 18 16 16 15 16 15 16 15 14 14 16 17 18 19 21 21 21 23 29 39 40 46 49 49 46 46 51 51 50 48 42 41 39 38 36 34 33 29 29 33 34 33 31 25 25 22
20 20 22 23 24 19 16 15 14 15 17 18 18 20 23 23 27 30 32 39 45 49 46 48 49 52 53 54 61 67 69 67 66 60 46 38 36 38 38 44 49 49 46 41 41 34 30 26 24
22 24 23 24 25 28 27 24 24 25 28 29 31 32 32 32 33 36 39 42 43 45 46 46 48 49 49 52 52 54 54 54 55 59 57 49 46 49 56 58 58 59 54 46 36 29 27 22 21
20 19 17 19 23 26 34 36 36 35 36 37 39 40 43 48 50 51 50 52 54 54 54 53 55 55 46 43 49 52 55 58 60 62 60 56 53 54 66 73 71 66 62 56 45 38 26 24 22
21 20 19 19 27 29 33 37 41 42 47 49 47 46 46 50 55 54 54 61 62 53 50 45 44 51 64 72 71 71 72 72 76 74 70 70 69 70 66 61 56 58 51 46 44 43 34 31 26
24 25 26 38 44 33 32 39 53 64 64 74 70 66 61 57 54 54 52 49 49 47 52 55 59 64 67 69 70 74 78 78 63 60 61 62 61 58 55 54 52 50 42 38 31 28 26 25 22
28 36 56 74 68 51 48 48 52 58 74 85 82 84 89 80 70 62 57 58 64 70 73 69 67 70 68 59 59 56 53 56 63 76 77 75 66 60 59 54 48 49 46 38 31 32 29 28 26
43 65 78 84 70 61 58 59 63 59 52 51 54 61 74 76 71 70 64 66 64 61 57 63 84 99 97 92 90 90 83 76 73 81 82 78 75 68 66 56 49 46 41 35 32 37 36 33 29
62 74 85 82 71 77 70 59 93 76 82 72 62 50 43 52 54 57 63 64 66 62 61 64 59 56 58 67 78 77 81 90 83 82 83 72 64 57 55 54 48 42 34 30 29 26 25 26 32
Wind_Speed
4 2 2 8 13 17 20 18 20 20 20 20 19 16 17 14 14 16 18 20 23 25 26 28 30 32 32 31 30 20 24 17 20 20 20 25 24 26 23 18 25 39 47 50 61 68 75 72 67
2 2 8 9 11 14 16 16 16 14 14 13 14 14 15 16 19 22 24 24 23 24 25 29 31 32 31 33 33 30 27 22 20 13 16 15 19 21 25 25 21 24 41 50 53 65 73 79 73
1 3 5 4 4 5 6 8 9 10 11 12 15 16 16 19 20 20 20 22 23 21 22 25 27 30 31 29 31 31 29 23 20 17 12 15 14 16 24 26 27 30 25 41 52 54 69 80 79
2 2 1 2 3 5 6 8 10 11 12 13 14 16 17 17 20 19 22 23 20 21 22 24 25 26 24 21 22 29 34 28 21 21 20 17 21 23 20 24 33 35 29 21 48 57 58 72 81
3 2 3 5 6 6 6 7 9 11 12 13 15 17 18 20 20 22 23 23 23 23 25 26 24 24 22 22 22 22 24 30 24 23 22 24 16 15 20 25 32 36 35 28 24 51 58 65 81
1 1 3 2 3 4 6 6 8 10 11 12 14 18 18 20 20 22 23 24 23 23 25 24 22 21 21 21 20 20 19 22 24 20 19 15 17 20 21 27 36 38 39 31 26 28 50 61 69
2 2 2 2 3 6 7 9 10 12 13 14 16 19 20 19 21 20 21 21 23 24 25 23 24 23 23 25 22 21 17 17 16 23 16 13 20 23 24 28 35 35 35 34 34 28 31 57 62
4 4 3 5 6 10 9 12 13 15 17 16 17 20 20 21 22 23 23 24 25 27 26 27 26 25 24 27 25 22 23 19 20 19 13 17 15 19 19 27 29 36 40 36 38 32 25 34 56
6 6 6 8 8 11 12 15 16 17 20 20 20 23 25 23 24 24 27 27 28 30 30 30 28 27 26 27 27 26 25 24 20 13 12 12 9 11 14 19 26 29 33 38 41 42 35 31 40
10 10 10 10 10 12 15 17 19 20 22 22 25 26 28 27 27 28 29 30 30 31 32 32 32 31 29 29 28 30 27 25 18 15 14 13 6 4 3 4 10 19 24 31 35 42 43 39 35
14 13 13 13 14 16 19 21 23 23 24 24 26 28 30 31 31 31 31 32 32 33 33 34 34 33 32 33 31 33 32 28 23 21 15 14 13 9 7 10 13 6 13 17 29 37 44 47 40
18 19 19 19 19 21 24 26 28 28 27 27 28 32 30 32 33 34 35 36 35 35 35 35 34 35 35 35 34 36 35 31 28 26 19 17 20 17 21 13 10 7 12 11 20 31 38 43 42
22 24 25 25 26 27 29 32 33 32 29 32 30 32 34 35 35 37 38 38 39 38 37 37 36 37 37 37 37 37 39 37 34 32 31 27 29 28 25 22 20 16 15 5 6 11 26 37 47
28 28 29 29 31 32 34 37 37 37 34 34 35 35 37 36 38 40 41 41 41 40 40 38 38 38 39 39 38 40 41 40 38 38 38 37 36 36 34 35 35 20 23 9 13 2 12 24 35
32 33 33 33 35 37 38 43 41 38 37 36 42 39 39 39 40 41 41 42 41 42 43 41 39 40 40 40 40 42 44 44 44 43 43 45 44 42 40 43 41 35 29 20 8 1 5 7 24
34 36 37 39 39 40 42 47 41 40 40 43 44 43 42 38 39 41 41 42 42 43 44 41 40 41 41 41 42 44 46 47 48 47 46 46 47 49 48 50 53 35 34 30 15 12 10 9 18
37 38 39 42 43 42 41 46 41 42 44 46 46 44 39 42 43 42 42 43 43 43 42 41 41 42 43 43 44 46 48 50 51 54 53 51 53 54 55 55 54 52 49 41 29 19 24 15 15
38 41 43 41 43 44 41 45 46 44 46 49 45 43 43 44 44 43 44 44 44 43 42 43 44 45 45 45 47 49 50 51 54 56 57 57 57 57 61 62 63 61 59 55 57 46 29 24 23
39 40 41 41 41 44 43 46 49 47 43 45 46 44 45 44 44 44 44 45 45 44 44 45 46 46 47 48 49 50 51 53 55 58 60 59 61 62 64 65 67 66 67 60 59 58 54 23 32
38 40 40 43 45 45 48 51 51 48 45 43 49 46 48 47 44 44 46 47 47 45 45 45 46 46 48 50 52 53 55 57 59 61 62 64 64 64 66 68 68 66 66 65 64 63 62 51 28
40 42 44 45 50 51 48 50 53 49 47 48 50 53 49 50 46 46 47 47 47 46 46 46 48 50 52 54 56 57 59 61 61 63 64 65 65 64 64 65 66 66 67 67 66 67 66 68 55
44 45 47 47 49 52 50 52 51 53 55 53 50 48 46 43 45 44 44 46 46 47 48 49 50 53 57 59 61 62 64 64 66 66 66 67 66 66 66 66 69 69 71 74 73 72 70 71 68
44 47 49 49 49 51 52 50 49 48 43 43 41 39 38 37 37 39 41 44 46 49 51 53 56 59 62 65 66 67 68 69 69 68 71 70 71 71 73 74 75 77 77 79 80 81 81 76 73
48 50 49 48 45 45 45 46 43 40 39 39 39 41 41 43 43 43 46 48 52 56 59 62 65 67 69 71 71 73 72 72 72 74 75 74 74 75 77 80 82 83 86 87 87 86 84 79 73
53 53 52 50 47 46 45 44 46 40 39 41 43 44 46 48 50 52 55 57 61 63 66 68 69 70 72 72 71 72 72 74 75 78 78 79 80 82 84 88 90 91 92 93 94 92 90 85 76
57 58 58 51 47 44 44 42 44 45 46 48 49 51 53 55 56 58 60 63 65 66 67 68 70 72 74 77 79 81 83 83 81 82 82 84 86 88 91 92 94 95 98 100 100 100 98 93 85
58 58 54 52 49 43 42 45 42 50 55 53 55 58 59 59 61 63 65 66 66 69 72 72 74 76 77 79 82 83 85 85 87 87 88 90 93 95 98 98 100 102 103 102 103 104 100 95 90
59 55 51 46 45 41 42 47 49 54 58 62 64 64 64 64 66 68 69 71 74 77 79 80 81 83 84 84 84 88 90 90 91 94 98 100 101 103 105 107 107 108 109 109 111 111 109 103 98
56 52 47 50 52 53 52 53 58 66 65 66 66 67 69 72 74 74 74 75 78 78 79 82 86 89 91 94 98 99 101 105 108 110 112 110 112 115 115 116 115 114 116 118 117 117 114 109 103
56 50 53 58 60 62 65 57 69 70 71 71 70 69 66 67 70 73 74 79 87 88 89 91 91 93 94 97 100 103 106 110 115 118 119 120 122 123 125 125 127 127 125 124 124 122 117 116 113
Wind_Direction
308 214 207 183 224 244 247 251 254 276 278 281 279 274 276 276 280 286 290 290 290 282 277 273 277 286 285 286 279 270 277 271 276 279 287 294 290 298 290 274 248 233 231 227 220 217 211 213 213
266 225 223 243 232 243 252 262 261 269 272 273 278 274 280 289 294 295 295 290 284 282 275 273 278 283 286 289 279 271 277 264 268 254 257 275 279 279 288 292 279 244 231 228 225 219 217 214 214
256 237 240 244 258 257 276 271 277 280 284 284 288 290 293 294 298 299 294 287 280 275 272 274 276 289 295 294 283 280 269 267 254 253 266 280 266 270 277 279 280 280 245 232 229 225 220 216 213
258 267 245 278 315 313 303 295 295 295 292 291 290 292 294 295 300 285 288 285 282 275 276 280 287 293 299 301 298 286 273 264 256 269 266 291 264 264 277 277 272 283 281 246 229 227 224 221 213
285 304 297 318 325 314 307 297 292 292 295 295 294 298 297 298 296 292 289 288 282 274 276 290 295 299 302 303 305 290 285 254 257 262 257 261 246 270 267 272 276 284 289 274 252 229 228 221 218
276 245 281 253 267 282 287 293 297 299 300 298 299 301 299 294 294 290 291 290 282 281 287 294 300 306 304 298 310 315 299 258 249 256 249 250 255 260 269 272 279 281 282 288 277 237 231 227 221
225 212 218 259 295 307 308 300 298 294 294 295 291 287 287 286 286 286 286 287 288 288 292 294 301 303 305 306 306 306 304 294 274 251 243 271 257 261 265 274 278 280 283 283 278 271 235 231 227
215 245 283 306 313 303 307 300 298 296 292 292 290 283 290 288 290 290 291 293 292 292 294 297 298 300 305 305 309 304 306 306 313 260 279 279 297 267 269 269 283 281 283 282 282 275 252 237 231
232 250 267 291 302 303 310 305 303 304 297 295 294 292 291 292 292 289 293 295 292 292 291 293 295 298 302 302 307 309 310 311 315 295 292 293 314 261 258 263 268 278 279 277 278 273 271 237 236
249 252 265 280 294 300 307 311 311 308 302 300 294 296 292 292 292 292 290 293 292 290 291 292 292 295 298 299 305 306 309 311 320 309 288 296 330 323 304 268 278 276 276 279 282 278 280 268 252
257 257 263 272 283 295 303 304 304 304 304 299 297 297 294 294 292 291 289 292 293 292 293 292 291 292 296 300 303 303 305 313 320 325 310 278 304 311 345 320 356 332 294 289 279 274 272 272 275
264 262 265 273 282 291 300 303 301 301 301 302 296 292 293 291 290 290 291 291 292 291 292 291 292 293 294 297 299 302 306 311 316 317 291 284 302 294 299 308 315 306 346 308 284 276 268 267 270
267 269 270 276 281 286 296 300 298 302 297 293 297 293 293 290 290 291 290 289 288 289 290 291 291 291 292 292 297 300 304 308 312 313 311 307 307 298 300 304 314 318 328 325 17 329 263 266 265
269 273 275 277 280 285 292 296 298 300 297 294 296 296 292 290 289 288 290 288 288 288 288 289 290 290 290 291 296 299 300 303 308 308 307 306 310 307 303 307 311 309 316 309 352 322 238 244 257
268 272 275 278 280 284 289 292 295 296 295 294 297 296 293 292 289 288 287 288 287 287 288 290 290 289 290 293 295 297 299 302 303 305 308 307 308 307 308 310 321 315 316 307 353 323 215 250 242
271 273 277 280 280 285 288 291 291 294 293 294 294 296 295 291 290 291 290 288 286 286 287 289 288 288 291 292 295 295 296 298 301 302 303 303 305 305 308 313 315 307 313 325 297 301 222 196 231
274 275 277 280 283 285 289 288 291 293 293 293 295 296 293 291 289 291 290 287 286 285 287 287 287 287 289 291 292 293 295 296 298 301 302 301 301 302 306 309 312 314 323 322 311 279 282 235 244
279 279 278 277 283 286 287 288 291 290 293 294 294 293 292 292 290 289 286 285 286 286 284 284 285 287 289 289 290 291 292 294 295 295 297 298 299 300 302 306 307 313 315 319 321 322 306 278 278
280 281 283 284 284 285 285 284 286 289 289 290 292 293 293 290 289 288 286 285 285 283 281 282 283 285 285 286 286 287 289 291 291 292 293 295 295 296 297 299 303 307 308 312 316 316 318 297 275
282 286 287 289 287 287 289 290 289 291 290 287 292 294 295 291 287 286 284 285 285 283 280 281 282 282 282 282 284 287 290 291 291 292 294 293 293 295 295 296 300 304 304 306 308 310 312 314 281
287 288 290 288 291 291 291 292 293 291 290 291 292 293 292 289 288 285 284 284 283 282 280 279 280 282 283 285 287 289 290 290 292 292 292 292 293 293 293 294 297 299 302 305 307 307 309 311 313
291 293 295 297 297 295 290 288 288 291 294 293 291 289 289 288 289 287 288 288 286 285 283 284 283 283 284 287 289 290 291 292 291 292 292 292 292 294 295 296 296 297 300 303 305 308 311 310 308
292 294 296 300 302 300 298 295 293 294 294 296 296 294 291 289 289 290 290 288 286 284 285 284 285 286 288 290 290 290 291 291 291 292 291 292 293 292 293 293 295 296 298 300 301 303 305 306 304
293 294 295 297 298 302 301 300 299 299 299 301 301 299 298 295 292 289 288 286 285 284 285 286 286 288 289 289 290 290 290 289 290 290 290 290 290 290 291 293 294 295 297 298 300 303 303 305 304
292 293 296 296 297 297 294 292 295 296 300 299 299 298 296 294 293 291 289 288 288 288 289 290 290 289 289 289 288 288 287 288 289 288 288 287 287 288 289 291 293 294 294 294 296 298 300 300 299
292 295 296 298 296 294 287 287 291 293 294 297 301 299 297 296 294 293 291 291 290 291 291 292 292 290 288 286 286 285 285 286 286 286 286 286 286 287 288 289 290 290 291 293 293 293 295 297 297
292 295 296 295 297 291 282 282 290 294 292 296 299 299 299 297 295 293 293 293 292 292 290 288 287 286 285 284 283 282 282 283 285 286 286 286 286 287 287 287 287 288 290 291 292 293 294 293 292
293 295 297 300 303 299 291 284 284 283 289 295 298 298 296 293 292 292 293 293 292 291 290 288 286 285 284 283 283 284 284 284 284 285 285 285 284 284 284 284 285 286 288 289 291 289 291 293 290
293 296 296 299 299 299 295 291 290 287 289 291 291 291 291 290 292 291 290 292 291 291 289 288 286 284 284 283 283 283 282 282 281 280 281 281 281 281 282 284 286 287 288 289 289 289 290 290 290
292 292 294 297 299 299 297 302 292 292 292 292 291 290 289 293 292 290 290 290 288 290 288 286 285 283 283 282 281 281 280 279 278 279 280 281 281 282 284 285 286 286 288 290 289 289 289 289 288